FW4340 Weather Reports


time (UTC)temp
C
wind
direction
speed
KPH
gust
KPH
rain 1hr
cm
rain 24hr
cm
rain mn
cm
humidity
%
barometer
mb
20260503021544 10 4 3.2 4.8 0.03 0.05 0.03 92 1008.3
20260503020046 10 340 0.0 0.0 0.03 0.05 0.03 92 1008.4
20260503014543 10 340 0.0 0.0 0.00 0.05 0.00 92 1008.6
20260503013036 10 341 0.0 1.6 0.00 0.05 0.00 92 1008.7
20260503011540 10 359 0.0 1.6 0.00 0.05 0.00 91 1008.8
20260503010032 10 347 0.0 3.2 0.00 0.05 0.00 91 1008.8
20260503004530 10 347 0.0 0.0 0.00 0.05 0.00 91 1008.9
20260503003029 10 359 0.0 0.0 0.00 0.05 0.00 91 1009.1
20260503001529 10 347 0.0 0.0 0.00 0.05 0.00 91 1009.1
20260503000026 10 359 0.0 0.0 0.00 0.05 0.00 91 1009.2
20260502234524 11 347 0.0 0.0 0.00 0.05 0.00 91 1009.3
20260502233019 11 347 0.0 3.2 0.00 0.05 0.00 91 1009.3
20260502231515 11 347 1.6 4.8 0.00 0.05 0.00 91 1009.4
20260502230011 11 359 1.6 4.8 0.00 0.05 0.00 90 1009.3
20260502224509 11 347 1.6 4.8 0.00 0.05 0.05 90 1009.4
20260502223007 11 26 3.2 6.4 0.00 0.05 0.05 90 1009.4
20260502221507 11 26 4.8 8.0 0.00 0.05 0.05 90 1009.6
20260502220006 11 62 3.2 6.4 0.00 0.05 0.05 91 1009.7
20260502214504 10 118 0.0 3.2 0.00 0.05 0.05 90 1009.7
20260502213004 11 118 1.6 3.2 0.00 0.05 0.05 90 1009.7
20260502211513 11 118 1.6 4.8 0.00 0.05 0.05 90 1009.8
20260502210006 11 118 1.6 4.8 0.00 0.05 0.05 90 1009.8
20260502204502 11 118 3.2 6.4 0.00 0.05 0.05 89 1009.9
20260502203000 11 118 4.8 9.7 0.00 0.05 0.05 89 1009.9
20260502201600 11 108 4.8 11.3 0.00 0.05 0.05 89 1010.0
20260502200059 11 99 6.4 12.9 0.00 0.05 0.05 88 1010.0
20260502194559 11 116 9.7 14.5 0.00 0.05 0.05 88 1010.0
20260502193059 11 106 9.7 16.1 0.00 0.05 0.05 87 1010.1
20260502191558 11 117 9.7 12.9 0.00 0.05 0.05 86 1010.0
20260502190058 11 128 8.0 12.9 0.00 0.05 0.05 86 1010.0
20260502184556 11 116 6.4 14.5 0.00 0.08 0.05 85 1010.1
20260502183059 12 119 8.0 14.5 0.00 0.08 0.05 84 1010.1
20260502181555 12 108 6.4 12.9 0.00 0.08 0.05 84 1010.1
20260502163054 13 71 6.4 16.1 0.00 0.10 0.05 79 1010.5
20260502161552 13 67 9.7 17.7 0.00 0.10 0.05 78 1010.7
20260502151539 12 54 9.7 16.1 0.00 0.15 0.05 82 1011.4
20260502123022 12 54 9.7 14.5 0.00 0.30 0.03 84 1013.0
20260502121518 12 56 11.3 16.1 0.00 0.30 0.03 84 1013.3
20260502114515 12 52 12.9 16.1 0.00 0.51 0.03 83 1013.6
20260502113018 12 52 12.9 16.1 0.00 0.51 0.03 84 1013.7
20260502111515 12 50 12.9 16.1 0.00 0.51 0.03 84 1013.6
20260502110018 12 66 9.7 14.5 0.00 0.51 0.03 83 1013.5
20260502104533 12 48 8.0 12.9 0.00 0.56 0.03 84 1013.5
20260502103010 12 51 6.4 12.9 0.00 0.56 0.03 84 1013.5
20260502101508 12 60 6.4 9.7 0.00 0.56 0.03 85 1013.6
20260502091509 11 54 8.0 9.7 0.00 0.56 0.03 88 1014.2
20260502070058 11 287 0.0 6.4 0.00 0.56 0.03 88 1014.4
20260502064606 11 280 0.0 4.8 0.00 0.56 0.03 89 1014.4
20260502063052 11 160 6.4 8.0 0.00 0.56 0.03 88 1014.2
20260502061551 11 185 1.6 8.0 0.00 0.56 0.03 91 1014.2
20260502060046 10 163 8.0 11.3 0.00 0.56 0.03 91 1014.1
20260502054546 9 198 3.2 4.8 0.00 0.56 0.03 91 1014.1
20260502053044 8 177 1.6 6.4 0.00 0.56 0.03 91 1014.2
20260502051607 8 287 0.0 4.8 0.00 0.56 0.03 90 1014.3
20260502050043 8 158 3.2 8.0 0.00 0.56 0.03 90 1014.2
20260502044542 8 154 4.8 8.0 0.00 0.56 0.03 90 1014.3
20260502043044 8 174 4.8 8.0 0.00 0.56 0.03 89 1014.2
20260502041541 8 272 1.6 4.8 0.00 0.56 0.03 89 1014.2
20260502040039 8 359 3.2 6.4 0.00 0.56 0.03 89 1014.3
20260502034544 8 197 1.6 6.4 0.00 0.56 0.03 89 1014.4
20260502033048 9 171 0.0 1.6 0.00 0.56 0.03 89 1014.5
20260502031542 9 359 3.2 4.8 0.00 0.56 0.03 89 1014.6
20260502030032 8 197 4.8 8.0 0.00 0.56 0.03 89 1014.6
20260502024531 9 230 3.2 4.8 0.00 0.56 0.03 89 1014.7
20260502023029 9 199 4.8 6.4 0.00 0.56 0.03 88 1014.8